N1979 KPDK-KGMU

Flight info

Callsign N1979
Flight time 0h 32m
Altitude 17000
Route EAONE ELW V266 PELZE
Aircraft B350/L-SBGRW/S

Departure

Time 2026-04-19 19:26
Airport DeKalb Peachtree Airport (KPDK)

Arrival

Time 2026-04-19 19:59
Airport Greenville Downtown Airport (KGMU)
Time Latitude Longitude Altitude Speed Heading
2026-04-19 19:00 33.87484 -84.30682 1009 ft 0 kts 96°
2026-04-19 19:21 33.87468 -84.30648 1009 ft 9 kts 140°
2026-04-19 19:22 33.87435 -84.30562 1004 ft 14 kts 93°
2026-04-19 19:22 33.87437 -84.30460 997 ft 12 kts 87°
2026-04-19 19:22 33.87403 -84.30418 996 ft 9 kts 198°
2026-04-19 19:22 33.87338 -84.30448 998 ft 11 kts 200°
2026-04-19 19:23 33.87255 -84.30487 998 ft 15 kts 201°
2026-04-19 19:23 33.87147 -84.30538 999 ft 15 kts 202°
2026-04-19 19:23 33.87039 -84.30583 1000 ft 17 kts 199°
2026-04-19 19:23 33.86952 -84.30612 1000 ft 7 kts 171°
2026-04-19 19:24 33.86928 -84.30593 1000 ft 4 kts 125°
2026-04-19 19:24 33.86911 -84.30545 1000 ft 9 kts 109°
2026-04-19 19:24 33.86887 -84.30466 1003 ft 11 kts 111°
2026-04-19 19:24 33.86889 -84.30390 1004 ft 7 kts 30°
2026-04-19 19:25 33.86898 -84.30385 1004 ft 0 kts 26°
2026-04-19 19:25 33.86900 -84.30384 1004 ft 2 kts 26°
2026-04-19 19:25 33.86963 -84.30354 1003 ft 24 kts 17°
2026-04-19 19:26 33.87326 -84.30193 997 ft 85 kts 21°
2026-04-19 19:26 33.88014 -84.29850 1150 ft 121 kts 16°
2026-04-19 19:26 33.88829 -84.29431 1575 ft 129 kts 19°
2026-04-19 19:26 33.89626 -84.28950 2027 ft 130 kts 20°
2026-04-19 19:27 33.90418 -84.28502 2556 ft 124 kts 21°
2026-04-19 19:27 33.91208 -84.28037 2999 ft 128 kts 30°
2026-04-19 19:27 33.91624 -84.27084 3392 ft 146 kts 81°
2026-04-19 19:27 33.91583 -84.25817 3867 ft 149 kts 84°
2026-04-19 19:28 33.91547 -84.24585 4278 ft 148 kts 84°
2026-04-19 19:28 33.91493 -84.23346 4724 ft 148 kts 83°
2026-04-19 19:28 33.91404 -84.22109 5160 ft 148 kts 84°
2026-04-19 19:28 33.91307 -84.20865 5543 ft 150 kts 84°
2026-04-19 19:29 33.91217 -84.19623 5939 ft 152 kts 85°
2026-04-19 19:29 33.91123 -84.18345 6341 ft 154 kts 84°
2026-04-19 19:29 33.91032 -84.17045 6755 ft 157 kts 84°
2026-04-19 19:29 33.90946 -84.15727 7091 ft 159 kts 84°
2026-04-19 19:30 33.90865 -84.14397 7451 ft 160 kts 85°
2026-04-19 19:30 33.90796 -84.13050 7798 ft 163 kts 85°
2026-04-19 19:30 33.90725 -84.11681 8180 ft 166 kts 85°
2026-04-19 19:30 33.90665 -84.10298 8592 ft 167 kts 85°
2026-04-19 19:31 33.90612 -84.08890 8915 ft 169 kts 84°
2026-04-19 19:31 33.90572 -84.07469 9315 ft 173 kts 84°
2026-04-19 19:31 33.90531 -84.06020 9711 ft 174 kts 85°
2026-04-19 19:31 33.90502 -84.04563 10096 ft 175 kts 85°
2026-04-19 19:32 33.90467 -84.03085 10434 ft 178 kts 85°
2026-04-19 19:32 33.90449 -84.01584 10774 ft 180 kts 85°
2026-04-19 19:32 33.90452 -84.00048 10965 ft 193 kts 84°
2026-04-19 19:32 33.90472 -83.98349 10980 ft 213 kts 85°
2026-04-19 19:33 33.90499 -83.96490 10983 ft 229 kts 85°
2026-04-19 19:33 33.90534 -83.94524 10982 ft 240 kts 85°
2026-04-19 19:33 33.90582 -83.92479 10982 ft 249 kts 85°
2026-04-19 19:33 33.90633 -83.90371 10983 ft 254 kts 85°
2026-04-19 19:34 33.90685 -83.88231 10979 ft 258 kts 85°
2026-04-19 19:34 33.90742 -83.86066 10986 ft 262 kts 85°
2026-04-19 19:34 33.90798 -83.83870 10978 ft 263 kts 85°
2026-04-19 19:34 33.90857 -83.81661 10971 ft 266 kts 85°
2026-04-19 19:35 33.90921 -83.79422 10978 ft 270 kts 85°
2026-04-19 19:35 33.90987 -83.77169 10975 ft 269 kts 85°
2026-04-19 19:35 33.91048 -83.74920 10985 ft 269 kts 85°
2026-04-19 19:35 33.91452 -83.72769 10964 ft 260 kts 58°
2026-04-19 19:36 33.92546 -83.71093 10961 ft 253 kts 39°
2026-04-19 19:36 33.93794 -83.69599 10982 ft 254 kts 43°
2026-04-19 19:36 33.94529 -83.68497 11006 ft 256 kts 49°
2026-04-19 19:36 33.95495 -83.66695 11062 ft 257 kts 54°
2026-04-19 19:37 33.96407 -83.64859 11246 ft 249 kts 53°
2026-04-19 19:37 33.97302 -83.63163 11675 ft 232 kts 52°
2026-04-19 19:37 33.98194 -83.61528 11808 ft 236 kts 51°
2026-04-19 19:37 33.99089 -83.59868 11970 ft 237 kts 52°
2026-04-19 19:38 33.99975 -83.58183 12127 ft 239 kts 52°
2026-04-19 19:38 34.00874 -83.56485 12299 ft 241 kts 52°
2026-04-19 19:38 34.01780 -83.54779 12448 ft 242 kts 52°
2026-04-19 19:38 34.02694 -83.53067 12550 ft 244 kts 52°
2026-04-19 19:39 34.03609 -83.51340 12685 ft 245 kts 53°
2026-04-19 19:39 34.04529 -83.49611 12900 ft 243 kts 52°
2026-04-19 19:39 34.05450 -83.47887 13152 ft 246 kts 53°
2026-04-19 19:39 34.06376 -83.46123 13405 ft 251 kts 53°
2026-04-19 19:40 34.07323 -83.44333 13674 ft 255 kts 53°
2026-04-19 19:40 34.08286 -83.42523 13928 ft 258 kts 53°
2026-04-19 19:40 34.09255 -83.40687 14158 ft 260 kts 53°
2026-04-19 19:40 34.10231 -83.38839 14394 ft 262 kts 53°
2026-04-19 19:41 34.11218 -83.36980 14625 ft 264 kts 53°
2026-04-19 19:41 34.12207 -83.35107 14859 ft 265 kts 53°
2026-04-19 19:41 34.13201 -83.33225 15101 ft 266 kts 53°
2026-04-19 19:41 34.14197 -83.31331 15342 ft 269 kts 53°
2026-04-19 19:42 34.15200 -83.29426 15579 ft 269 kts 52°
2026-04-19 19:42 34.16213 -83.27517 15819 ft 271 kts 52°
2026-04-19 19:42 34.17232 -83.25592 16068 ft 272 kts 52°
2026-04-19 19:42 34.18242 -83.23660 16315 ft 273 kts 52°
2026-04-19 19:43 34.19259 -83.21729 16564 ft 273 kts 52°
2026-04-19 19:43 34.20280 -83.19792 16817 ft 274 kts 52°
2026-04-19 19:43 34.21315 -83.17833 16902 ft 281 kts 52°
2026-04-19 19:43 34.22379 -83.15802 16906 ft 290 kts 52°
2026-04-19 19:44 34.23470 -83.13712 16910 ft 298 kts 52°
2026-04-19 19:44 34.24590 -83.11577 16911 ft 303 kts 52°
2026-04-19 19:44 34.25726 -83.09414 16909 ft 307 kts 53°
2026-04-19 19:44 34.26876 -83.07219 16914 ft 311 kts 53°
2026-04-19 19:45 34.28038 -83.05003 16912 ft 313 kts 53°
2026-04-19 19:45 34.29205 -83.02764 16910 ft 315 kts 53°
2026-04-19 19:45 34.30381 -83.00519 16914 ft 317 kts 53°
2026-04-19 19:45 34.31563 -82.98264 16909 ft 318 kts 53°
2026-04-19 19:46 34.32743 -82.96000 16907 ft 319 kts 53°
2026-04-19 19:46 34.33930 -82.93731 16908 ft 320 kts 53°
2026-04-19 19:46 34.35124 -82.91448 16762 ft 325 kts 53°
2026-04-19 19:46 34.36349 -82.89095 16420 ft 335 kts 54°
2026-04-19 19:47 34.37607 -82.86659 15980 ft 346 kts 54°
2026-04-19 19:47 34.38879 -82.84204 15544 ft 349 kts 55°
2026-04-19 19:47 34.40151 -82.81702 15113 ft 341 kts 55°
2026-04-19 19:47 34.41400 -82.79347 14690 ft 334 kts 53°
2026-04-19 19:48 34.42801 -82.77140 14242 ft 327 kts 44°
2026-04-19 19:48 34.44332 -82.75124 13803 ft 323 kts 45°
2026-04-19 19:48 34.45792 -82.73075 13333 ft 319 kts 46°
2026-04-19 19:48 34.47226 -82.71048 12874 ft 314 kts 45°
2026-04-19 19:49 34.48661 -82.69074 12405 ft 310 kts 44°
2026-04-19 19:49 34.50082 -82.67136 11955 ft 305 kts 44°
2026-04-19 19:49 34.51472 -82.65213 11510 ft 302 kts 44°
2026-04-19 19:49 34.52846 -82.63304 11070 ft 298 kts 45°
2026-04-19 19:50 34.53914 -82.61805 10710 ft 289 kts 44°
2026-04-19 19:50 34.55227 -82.59985 10031 ft 285 kts 44°
2026-04-19 19:50 34.56520 -82.58198 9286 ft 280 kts 44°
2026-04-19 19:50 34.57793 -82.56445 8526 ft 275 kts 45°
2026-04-19 19:51 34.58865 -82.54603 8309 ft 260 kts 59°
2026-04-19 19:51 34.59626 -82.52624 7974 ft 255 kts 60°
2026-04-19 19:51 34.60412 -82.50665 7576 ft 267 kts 60°
2026-04-19 19:51 34.61240 -82.48609 7144 ft 276 kts 61°
2026-04-19 19:52 34.62123 -82.46526 6708 ft 279 kts 60°
2026-04-19 19:52 34.62983 -82.44375 6286 ft 281 kts 68°
2026-04-19 19:52 34.63274 -82.42036 5880 ft 284 kts 91°
2026-04-19 19:52 34.63076 -82.39681 5410 ft 286 kts 95°
2026-04-19 19:53 34.62819 -82.37281 4754 ft 279 kts 96°
2026-04-19 19:53 34.62547 -82.35006 4073 ft 266 kts 93°
2026-04-19 19:53 34.62745 -82.32885 3390 ft 251 kts 66°
2026-04-19 19:53 34.63702 -82.31246 2891 ft 227 kts 34°
2026-04-19 19:54 34.65054 -82.30674 2890 ft 195 kts 358°
2026-04-19 19:54 34.66229 -82.31193 2886 ft 179 kts 323°
2026-04-19 19:54 34.67133 -82.32310 2896 ft 193 kts 318°
2026-04-19 19:54 34.68077 -82.33505 2935 ft 200 kts 317°
2026-04-19 19:55 34.69094 -82.34765 2522 ft 223 kts 319°
2026-04-19 19:55 34.70352 -82.35909 2301 ft 223 kts 336°
2026-04-19 19:55 34.71754 -82.36443 2305 ft 206 kts 358°
2026-04-19 19:55 34.73100 -82.36115 2317 ft 199 kts 25°
2026-04-19 19:56 34.74168 -82.35002 2308 ft 208 kts 45°
2026-04-19 19:56 34.75328 -82.34044 2326 ft 203 kts 12°
2026-04-19 19:56 34.76717 -82.33854 2274 ft 201 kts 346°
2026-04-19 19:56 34.77994 -82.34618 2276 ft 210 kts 327°
2026-04-19 19:57 34.79193 -82.35266 2461 ft 164 kts 347°
2026-04-19 19:57 34.80209 -82.35265 2289 ft 135 kts
2026-04-19 19:57 34.81108 -82.35056 1857 ft 130 kts 10°
2026-04-19 19:57 34.81987 -82.34942 1527 ft 122 kts 360°
2026-04-19 19:58 34.82803 -82.34913 1352 ft 115 kts
2026-04-19 19:58 34.83562 -82.34872 1202 ft 107 kts
2026-04-19 19:58 34.84274 -82.34856 1028 ft 95 kts 358°
2026-04-19 19:58 34.84847 -82.34842 1014 ft 55 kts 360°
2026-04-19 19:59 34.85054 -82.34836 1022 ft 15 kts 358°
2026-04-19 19:59 34.85087 -82.34855 1025 ft 11 kts 309°
2026-04-19 19:59 34.85095 -82.34956 1024 ft 15 kts 271°
2026-04-19 19:59 34.85110 -82.35068 1024 ft 14 kts 305°
2026-04-19 20:00 34.85172 -82.35105 1029 ft 7 kts 36°
2026-04-19 20:00 34.85186 -82.35084 1030 ft 0 kts 54°